Location: STAR School
(35.3054°N, 111.2976°W)
Time: 04:44:14
(UTC-07:00)

N. Korean satellite - Visible Passes

Search period start: 20 February 2019 00:00
Search period end: 02 March 2019 00:00
Orbit: 456 x 510 km, 97.2° (Epoch: 20 February)

Date Brightness Start Highest point End Pass type
(mag) Time Alt. Az. Time Alt. Az. Time Alt. Az.
20 Feb 10.4 05:33:48 10° E 05:34:00 10° E 05:34:12 10° E visible
21 Feb 10.0 18:46:14 10° SW 18:48:45 17° W 18:51:15 10° NW visible
22 Feb 7.9 06:14:52 10° NNE 06:18:08 41° E 06:21:23 10° S visible
23 Feb 9.6 05:50:49 10° NE 05:53:18 19° E 05:55:46 10° SE visible
25 Feb 9.9 18:40:25 10° SW 18:43:09 20° W 18:45:54 10° NW visible
26 Feb 8.4 06:09:22 10° NNE 06:12:32 34° E 06:15:40 10° SSE visible
27 Feb 9.8 05:45:30 10° NE 05:47:40 16° E 05:49:50 10° SE visible
28 Feb 10.6 19:01:21 10° WSW 19:02:26 11° W 19:03:29 10° WNW visible
